CW0728 Weather Reports


Display with metric or nautical units.
time (UTC)temp
F
wind
direction
speed
MPH
gust
MPH
rain 1hr
in
rain 24hr
in
rain mn
in
humidity
%
barometer
mb
20260901043019 56 217 0.0 0.0 0.00 0.00 0.00 90 1016.4
20260901041556 56 217 0.0 0.0 0.00 0.00 0.00 90 1016.4
20260901040032 56 217 0.0 0.0 0.00 0.00 0.00 90 1016.5
20260901034523 56 217 0.0 0.0 0.00 0.00 0.00 90 1016.5
20260901033047 57 217 0.0 0.0 0.00 0.00 0.00 89 1016.5
20260901031533 57 217 0.0 0.0 0.00 0.00 0.00 89 1016.6
20260901030003 58 217 0.0 0.0 0.00 0.04 0.00 88 1016.6
20260901024550 58 217 0.0 0.0 0.00 0.04 0.00 87 1016.5
20260901023021 58 217 0.0 0.0 0.00 0.04 0.00 87 1016.4
20260901021555 59 217 0.0 0.0 0.00 0.04 0.00 87 1016.4
20260901020040 59 217 0.0 0.0 0.00 0.04 0.00 86 1016.5
20260901014509 59 219 0.0 0.0 0.00 0.04 0.00 84 1016.4
20260901013047 60 219 0.0 0.0 0.00 0.04 0.00 83 1016.4
20260901011526 61 219 0.0 0.0 0.00 0.04 0.00 82 1016.5
20260901004539 61 219 0.0 0.0 0.00 0.04 0.00 82 1016.5
20260901003023 62 205 0.0 0.0 0.00 0.04 0.00 81 1016.5
20260901001600 62 205 0.0 0.0 0.00 0.04 0.00 80 1016.4
20260901000034 62 215 0.0 0.0 0.00 0.04 0.00 79 1016.3
20260831234512 63 180 0.0 0.0 0.00 0.04 0.00 78 1016.3
20260831233049 63 190 0.0 0.0 0.00 0.04 0.00 78 1016.4
20260831231523 64 230 0.0 0.0 0.00 0.04 0.00 78 1016.7
20260831213005 69 188 1.0 5.0 0.00 0.04 0.00 62 1016.7
20260831211542 69 200 1.0 8.0 0.00 0.04 0.00 58 1016.9
20260831210022 70 219 2.0 6.0 0.00 0.04 0.00 60 1016.9
20260831204558 70 212 1.0 9.0 0.00 0.04 0.00 60 1017.0
20260831203033 70 207 1.0 5.0 0.00 0.04 0.00 60 1017.1
20260831201518 70 56 0.0 7.0 0.00 0.04 0.00 57 1017.0
20260831200057 70 229 1.0 9.0 0.00 0.04 0.00 57 1017.1
20260831194540 70 223 0.0 8.0 0.00 0.04 0.00 57 1017.3
20260831193118 69 227 0.0 11.0 0.00 0.04 0.00 61 1017.4
20260831184523 71 94 0.0 9.0 0.00 0.04 0.00 49 1017.5
20260831183058 71 237 2.0 7.0 0.00 0.04 0.00 50 1017.4
20260831181541 71 219 0.0 4.0 0.00 0.04 0.00 49 1017.6
20260831180039 70 227 2.0 9.0 0.00 0.04 0.00 53 1017.8
20260831174602 72 242 1.0 9.0 0.00 0.04 0.00 49 1017.9
20260831173036 73 233 2.0 7.0 0.00 0.04 0.00 45 1017.9
20260831171510 74 105 1.0 8.0 0.00 0.04 0.00 47 1017.8
20260831170047 74 222 1.0 9.0 0.00 0.04 0.00 46 1017.9
20260831164538 75 161 1.0 9.0 0.00 0.04 0.00 44 1018.2
20260831163102 77 170 0.0 6.0 0.00 0.04 0.00 36 1018.4
20260831161545 77 108 0.0 0.0 0.00 0.04 0.00 40 1018.3
20260831160019 76 355 0.0 3.0 0.00 0.04 0.00 39 1018.3
20260831154604 76 94 0.0 6.0 0.00 0.04 0.00 43 1018.5
20260831153028 74 306 0.0 5.0 0.00 0.04 0.00 43 1018.5
20260831121533 58 45 0.0 0.0 0.00 0.04 0.00 82 1018.6
20260831120041 56 20 0.0 0.0 0.00 0.04 0.00 87 1018.6
20260831114526 55 50 0.0 0.0 0.00 0.04 0.00 92 1018.8
20260831113051 54 316 0.0 0.0 0.00 0.04 0.00 93 1018.7
20260831111526 53 319 0.0 0.0 0.00 0.04 0.00 92 1018.4
20260831110012 52 319 0.0 0.0 0.00 0.04 0.00 92 1018.4
20260831104553 52 319 0.0 0.0 0.00 0.04 0.00 91 1018.2
20260831103017 52 319 0.0 0.0 0.00 0.04 0.00 90 1017.9
20260831101552 52 319 0.0 0.0 0.00 0.04 0.00 91 1017.8
20260831100033 52 319 0.0 0.0 0.00 0.04 0.00 90 1017.8
20260831094508 53 319 0.0 0.0 0.00 0.04 0.00 89 1017.6
20260831093050 53 318 0.0 0.0 0.00 0.04 0.00 88 1017.6
20260831091526 54 318 0.0 0.0 0.00 0.04 0.00 87 1017.4
20260831090101 55 318 0.0 0.0 0.00 0.04 0.00 87 1017.2
20260831084535 56 318 0.0 0.0 0.00 0.04 0.00 86 1016.9
20260831083009 56 318 0.0 0.0 0.00 0.04 0.00 86 1016.8
20260831081543 57 303 0.0 0.0 0.00 0.04 0.00 85 1016.8
20260831080029 57 324 0.0 0.0 0.00 0.04 0.00 84 1016.6
20260831074502 58 355 0.0 0.0 0.00 0.04 0.00 84 1016.5
20260831073037 57 306 0.0 1.0 0.00 0.04 0.00 86 1016.4
20260831071526 57 355 0.0 0.0 0.00 0.04 0.00 87 1016.3
20260831070052 57 325 0.0 0.0 0.00 0.04 0.00 87 1016.2
20260831064529 57 333 0.0 0.0 0.00 0.04 0.00 87 1016.2
20260831063005 57 10 0.0 0.0 0.00 0.04 0.00 87 1016.2
20260831061544 57 328 0.0 0.0 0.00 0.04 0.00 87 1016.0
20260831060030 57 20 0.0 0.0 0.00 0.04 0.00 87 1015.9
20260831054503 58 271 0.0 0.0 0.00 0.04 0.00 87 1015.7
20260831053042 58 309 0.0 0.0 0.00 0.04 0.00 88 1015.6
20260831051518 58 305 0.0 0.0 0.00 0.04 0.00 87 1015.4
20260831050055 58 305 0.0 0.0 0.00 0.04 0.00 87 1015.4
20260831044539 59 305 0.0 0.0 0.00 0.04 0.00 87 1015.4